| time (UTC) | temp F | wind direction | speed MPH | gust MPH | rain 1hr in | rain 24hr in | rain mn in | humidity % | barometer mb |
| 20260505124511 | 80 | 232 | 1.0 | 7.0 | 0.00 | 0.00 | 0.00 | 29 | 1015.2 |
| 20260505123010 | 79 | 197 | 1.0 | 9.0 | 0.00 | 0.00 | 0.00 | 30 | 1015.3 |
| 20260505121510 | 79 | 107 | 2.0 | 7.0 | 0.00 | 0.00 | 0.00 | 30 | 1015.4 |
| 20260505120007 | 79 | 237 | 1.0 | 8.0 | 0.00 | 0.00 | 0.00 | 32 | 1015.6 |
| 20260505114506 | 79 | 140 | 3.0 | 11.0 | 0.00 | 0.00 | 0.00 | 32 | 1015.7 |
| 20260505113005 | 79 | 137 | 4.0 | 13.0 | 0.00 | 0.00 | 0.00 | 34 | 1015.7 |
| 20260505111504 | 79 | 241 | 3.0 | 8.0 | 0.00 | 0.00 | 0.00 | 36 | 1015.7 |
| 20260505101602 | 78 | 143 | 2.0 | 7.0 | 0.00 | 0.00 | 0.00 | 38 | 1016.0 |
| 20260505100055 | 77 | 70 | 2.0 | 7.0 | 0.00 | 0.00 | 0.00 | 37 | 1016.0 |
| 20260505094553 | 77 | 220 | 1.0 | 5.0 | 0.00 | 0.00 | 0.00 | 40 | 1016.1 |
| 20260505093047 | 77 | 256 | 3.0 | 11.0 | 0.00 | 0.00 | 0.00 | 39 | 1016.3 |
| 20260505091554 | 76 | 183 | 0.0 | 8.0 | 0.00 | 0.00 | 0.00 | 37 | 1016.3 |
| 20260505090052 | 75 | 227 | 2.0 | 11.0 | 0.00 | 0.00 | 0.00 | 36 | 1016.4 |
| 20260505084538 | 75 | 191 | 0.0 | 8.0 | 0.00 | 0.00 | 0.00 | 36 | 1016.5 |
| 20260505083041 | 74 | 229 | 2.0 | 5.0 | 0.00 | 0.00 | 0.00 | 36 | 1016.6 |
| 20260505081548 | 73 | 262 | 2.0 | 8.0 | 0.00 | 0.00 | 0.00 | 38 | 1016.7 |
| 20260505080037 | 72 | 254 | 2.0 | 8.0 | 0.00 | 0.00 | 0.00 | 38 | 1016.7 |
| 20260505074522 | 72 | 231 | 2.0 | 7.0 | 0.00 | 0.00 | 0.00 | 37 | 1016.7 |
| 20260505073018 | 71 | 245 | 1.0 | 6.0 | 0.00 | 0.00 | 0.00 | 38 | 1016.8 |
| 20260505071523 | 70 | 245 | 0.0 | 5.0 | 0.00 | 0.00 | 0.00 | 41 | 1016.8 |
| 20260505070010 | 69 | 270 | 0.0 | 3.0 | 0.00 | 0.00 | 0.00 | 44 | 1016.8 |
| 20260505064504 | 68 | 185 | 0.0 | 4.0 | 0.00 | 0.00 | 0.00 | 45 | 1016.8 |
| 20260505063101 | 67 | 202 | 1.0 | 7.0 | 0.00 | 0.00 | 0.00 | 47 | 1016.8 |
| 20260505061624 | 65 | 237 | 0.0 | 1.0 | 0.00 | 0.00 | 0.00 | 54 | 1016.6 |
| 20260505060053 | 64 | 237 | 0.0 | 2.0 | 0.00 | 0.00 | 0.00 | 60 | 1016.6 |
| 20260505054559 | 63 | 237 | 0.0 | 2.0 | 0.00 | 0.00 | 0.00 | 64 | 1016.6 |
| 20260505053044 | 61 | 237 | 0.0 | 2.0 | 0.00 | 0.00 | 0.00 | 69 | 1016.7 |
| 20260505051538 | 59 | 237 | 0.0 | 1.0 | 0.00 | 0.00 | 0.00 | 74 | 1016.6 |
| 20260505041521 | 51 | 237 | 0.0 | 0.0 | 0.00 | 0.00 | 0.00 | 89 | 1016.5 |
| 20260505040017 | 50 | 237 | 0.0 | 0.0 | 0.00 | 0.00 | 0.00 | 88 | 1016.3 |
| 20260505034517 | 49 | 237 | 0.0 | 0.0 | 0.00 | 0.00 | 0.00 | 86 | 1016.4 |
| 20260505033026 | 50 | 237 | 0.0 | 0.0 | 0.00 | 0.00 | 0.00 | 86 | 1016.3 |
| 20260505031514 | 50 | 237 | 0.0 | 0.0 | 0.00 | 0.00 | 0.00 | 86 | 1016.3 |
| 20260505030010 | 50 | 237 | 0.0 | 0.0 | 0.00 | 0.00 | 0.00 | 86 | 1016.2 |
| 20260505024523 | 50 | 237 | 0.0 | 0.0 | 0.00 | 0.00 | 0.00 | 85 | 1016.4 |
| 20260505023007 | 50 | 237 | 0.0 | 0.0 | 0.00 | 0.00 | 0.00 | 85 | 1016.4 |
| 20260505021521 | 50 | 237 | 0.0 | 1.0 | 0.00 | 0.00 | 0.00 | 85 | 1016.4 |
| 20260505020005 | 50 | 237 | 0.0 | 0.0 | 0.00 | 0.00 | 0.00 | 84 | 1016.4 |
| 20260505014503 | 50 | 237 | 0.0 | 0.0 | 0.00 | 0.00 | 0.00 | 84 | 1016.6 |
| 20260505013002 | 51 | 237 | 0.0 | 0.0 | 0.00 | 0.00 | 0.00 | 84 | 1016.6 |
| 20260505011502 | 51 | 237 | 0.0 | 0.0 | 0.00 | 0.00 | 0.00 | 84 | 1016.6 |
| 20260505004604 | 51 | 237 | 0.0 | 0.0 | 0.00 | 0.00 | 0.00 | 84 | 1016.7 |
| 20260505003057 | 51 | 237 | 0.0 | 0.0 | 0.00 | 0.00 | 0.00 | 83 | 1016.8 |
| 20260505001555 | 51 | 237 | 0.0 | 0.0 | 0.00 | 0.00 | 0.00 | 83 | 1016.9 |
| 20260505000056 | 52 | 237 | 0.0 | 0.0 | 0.00 | 0.00 | 0.00 | 81 | 1017.0 |
| 20260504234551 | 52 | 237 | 0.0 | 0.0 | 0.00 | 0.00 | 0.00 | 81 | 1017.2 |
| 20260504233149 | 52 | 237 | 0.0 | 0.0 | 0.00 | 0.00 | 0.00 | 80 | 1017.4 |
| 20260504231548 | 52 | 237 | 0.0 | 0.0 | 0.00 | 0.00 | 0.00 | 79 | 1017.3 |
| 20260504230046 | 52 | 237 | 0.0 | 0.0 | 0.00 | 0.00 | 0.00 | 79 | 1017.5 |
| 20260504224543 | 53 | 237 | 0.0 | 0.0 | 0.00 | 0.00 | 0.00 | 79 | 1017.7 |
| 20260504223046 | 53 | 237 | 0.0 | 0.0 | 0.00 | 0.00 | 0.00 | 78 | 1017.8 |
| 20260504221547 | 53 | 237 | 0.0 | 0.0 | 0.00 | 0.00 | 0.00 | 78 | 1017.8 |
| 20260504220056 | 53 | 237 | 0.0 | 0.0 | 0.00 | 0.00 | 0.00 | 77 | 1018.0 |
| 20260504214539 | 54 | 237 | 0.0 | 0.0 | 0.00 | 0.00 | 0.00 | 75 | 1017.9 |
| 20260504213036 | 54 | 237 | 0.0 | 0.0 | 0.00 | 0.00 | 0.00 | 75 | 1017.9 |
| 20260504211534 | 54 | 237 | 0.0 | 0.0 | 0.00 | 0.00 | 0.00 | 73 | 1017.9 |
| 20260504210031 | 55 | 237 | 0.0 | 0.0 | 0.00 | 0.00 | 0.00 | 71 | 1017.9 |
| 20260504204546 | 55 | 237 | 0.0 | 0.0 | 0.00 | 0.00 | 0.00 | 71 | 1017.9 |
| 20260504203032 | 55 | 237 | 0.0 | 0.0 | 0.00 | 0.00 | 0.00 | 70 | 1018.0 |
| 20260504201529 | 56 | 237 | 0.0 | 0.0 | 0.00 | 0.00 | 0.00 | 69 | 1018.1 |
| 20260504200029 | 56 | 237 | 0.0 | 0.0 | 0.00 | 0.00 | 0.00 | 68 | 1018.2 |
| 20260504194536 | 56 | 237 | 0.0 | 0.0 | 0.00 | 0.00 | 0.00 | 68 | 1018.2 |
| 20260504193028 | 57 | 237 | 0.0 | 1.0 | 0.00 | 0.00 | 0.00 | 67 | 1018.0 |
| 20260504191527 | 57 | 237 | 0.0 | 1.0 | 0.00 | 0.00 | 0.00 | 66 | 1018.0 |
| 20260504190033 | 58 | 237 | 0.0 | 0.0 | 0.00 | 0.00 | 0.00 | 65 | 1017.9 |
| 20260504184533 | 58 | 237 | 0.0 | 1.0 | 0.00 | 0.00 | 0.00 | 63 | 1017.7 |
| 20260504183025 | 59 | 237 | 0.0 | 1.0 | 0.00 | 0.00 | 0.00 | 61 | 1017.7 |
| 20260504181525 | 60 | 237 | 0.0 | 1.0 | 0.00 | 0.00 | 0.00 | 59 | 1017.6 |
| 20260504180025 | 61 | 237 | 0.0 | 1.0 | 0.00 | 0.00 | 0.00 | 57 | 1017.4 |
| 20260504174525 | 62 | 252 | 0.0 | 1.0 | 0.00 | 0.00 | 0.00 | 52 | 1017.4 |
| 20260504173025 | 62 | 252 | 0.0 | 1.0 | 0.00 | 0.00 | 0.00 | 49 | 1017.4 |
| 20260504171523 | 63 | 254 | 0.0 | 3.0 | 0.00 | 0.00 | 0.00 | 49 | 1017.2 |